THORAD AGENA D DEB, 5349

Orbit data source: Space-Track

THORAD AGENA D DEB, 5349 is space debris in SSO originally from a launch on Wed, 08 Apr 1970 UTC launched from the Air Force Western Test Range (AFWTR). Debris objects in space refer to the collection of defunct objects orbiting the Earth. Examples of debris include non-operational satellites, rocket bodies, and fragments generated from explosions, collisions, or faulty payload assembly.

Loading next visibility...
Identifier
5349, 1970-025KN
Orbit
SSO
Country
Flag of USUS
Related business
Manufacturer
Unknown
Mission
Spacecraft
Bus & Motor
Unknown
Mass
Unknown
Launch date (UTC)
1970-04-08 (56 years ago)
Launch vehicle
Unknown
Launch site
Air Force Western Test Range (AFWTR)
Object type
Payload
Rocket body
Debris
Shape & HBR
Unknown shape, 0.1 m
Radar Cross Section
Small (<0.1 m²)

Expand to show TLE details & history
Last TLE update: 12 hours ago

TLE from 12 hours ago
0 THORAD AGENA D DEB
1 05349U 70025KN  25340.86171423  .00011791  00000-0  51944-2 0  9995
2 05349  99.8108 195.8848 0057123 341.5456  18.3645 14.22685929722542
Epoch: 2025-12-06T20:40Z
TLE epoch observation values (Epoch: 2025-12-06T20:40:52.109Z)
Latitude
-0.0001°
Longitude
169.78432°
Altitude
780.176 km
Speed
7.484 km/s
True Right ascension
13h 03m 32s
True Declination
0° 00' 00"
Sunlit
Object was in daylight at epoch
Visualization orbit readout
Latitude
Unknown
Longitude
Unknown
Altitude
Unknown
Speed
Unknown
Apparent Right ascension
Unknown
Apparent Declination
Unknown
Sunlit
N/A
Visualization observer readout
Local Sidereal Time
06:25:34
Azimuth
Unknown
Elevation
Unknown
Doppler factor
Unknown
Orbital elements
Apogee altitude
854.575 km
Perigee altitude
772.414 km
Semi-major axis
7,191.631 km
Eccentricity
0.00571
Inclination
99.8108°
RAAN
195.8848°
Arg. of periapsis
341.5456°
True anomaly
18.57214°
Mean anomaly
18.3645°
Eccentric anomaly
18.46818°
Mean motion
3.55879 °/min
Orbital period
101.16 mins
BSTAR
0.0051944
Loading maneuver chart data...
Computing Atmospheric mass density...

Documentation

Showing up to 5 results
|